DW2633 Weather Reports


time (UTC)temp
C
wind
direction
speed
KPH
gust
KPH
rain 1hr
cm
rain 24hr
cm
rain mn
cm
humidity
%
barometer
mb
20260504025526 8 311 8.0 0.0 0.00 0.00 0.00 68 1009.1
20260504025027 8 355 9.7 0.0 0.00 0.00 0.00 71 1009.2
20260504024525 8 9 9.7 0.0 0.00 0.00 0.00 67 1009.2
20260504024024 8 346 9.7 0.0 0.00 0.00 0.00 67 1009.2
20260504023526 8 12 9.7 0.0 0.00 0.00 0.00 70 1009.1
20260504023025 8 360 11.3 0.0 0.00 0.00 0.00 68 1009.2
20260504022525 8 355 12.9 0.0 0.00 0.00 0.00 68 1009.1
20260504022025 8 325 12.9 0.0 0.00 0.00 0.00 67 1009.1
20260504021524 8 337 12.9 0.0 0.00 0.00 0.00 68 1009.2
20260504021024 8 355 14.5 0.0 0.00 0.00 0.00 65 1009.2
20260504020525 8 326 16.1 0.0 0.00 0.00 0.00 67 1009.2
20260504020024 8 325 16.1 0.0 0.00 0.00 0.00 67 1009.3
20260504015524 8 322 16.1 0.0 0.00 0.00 0.00 66 1009.3
20260504015024 8 333 19.3 0.0 0.00 0.00 0.00 67 1009.3
20260504014533 8 303 24.1 0.0 0.00 0.00 0.00 66 1009.3
20260504014023 8 302 22.5 0.0 0.00 0.00 0.00 67 1009.3
20260504013522 8 299 16.1 0.0 0.00 0.00 0.00 64 1009.4
20260504013034 8 309 14.5 0.0 0.00 0.00 0.00 63 1009.3
20260504012522 8 321 14.5 0.0 0.00 0.00 0.00 63 1009.3
20260504012022 8 311 17.7 0.0 0.00 0.00 0.00 60 1009.3
20260504011522 9 294 20.9 0.0 0.00 0.00 0.00 63 1009.3
20260504011021 8 295 25.7 0.0 0.00 0.00 0.00 61 1009.3
20260504010521 8 286 22.5 0.0 0.00 0.00 0.00 63 1009.1
20260504010021 8 296 16.1 0.0 0.00 0.00 0.00 63 1009.1
20260504005521 8 286 17.7 0.0 0.00 0.00 0.00 61 1009.0
20260504005021 8 289 16.1 0.0 0.00 0.00 0.00 61 1009.0
20260504004522 8 284 16.1 0.0 0.00 0.00 0.00 60 1008.9
20260504004021 8 287 17.7 0.0 0.00 0.00 0.00 58 1008.8
20260504003522 9 286 19.3 0.0 0.00 0.00 0.00 54 1008.8
20260504003020 9 308 20.9 0.0 0.00 0.00 0.00 55 1008.8
20260504002521 9 294 24.1 0.0 0.00 0.00 0.00 59 1008.7
20260504002020 9 286 27.4 0.0 0.00 0.00 0.00 56 1008.7
20260504001521 9 292 29.0 0.0 0.00 0.00 0.00 58 1008.7
20260504001020 9 287 30.6 0.0 0.00 0.00 0.00 57 1008.6
20260504000519 9 288 30.6 0.0 0.00 0.00 0.00 58 1008.5
20260504000020 10 281 29.0 0.0 0.00 0.00 0.00 54 1008.5
20260503235521 10 291 27.4 0.0 0.00 0.00 0.00 53 1008.5
20260503235019 10 298 30.6 0.0 0.00 0.00 0.00 53 1008.5
20260503234521 10 288 33.8 0.0 0.00 0.00 0.00 53 1008.4
20260503234022 10 360 32.2 0.0 0.00 0.00 0.00 52 1008.3
20260503233519 10 300 30.6 0.0 0.00 0.00 0.00 52 1008.4
20260503233021 10 296 32.2 0.0 0.00 0.00 0.00 53 1008.2
20260503232519 10 301 35.4 0.0 0.00 0.00 0.00 50 1008.1
20260503232021 10 288 37.0 0.0 0.00 0.00 0.00 52 1008.0
20260503231520 10 295 38.6 0.0 0.00 0.00 0.00 53 1007.9
20260503231019 10 360 40.2 0.0 0.00 0.00 0.00 53 1007.8
20260503230520 10 360 38.6 0.0 0.00 0.00 0.00 51 1007.7
20260503230017 10 280 32.2 0.0 0.00 0.00 0.00 52 1007.6
20260503225517 10 296 27.4 0.0 0.00 0.00 0.00 50 1007.6
20260503225018 10 319 25.7 0.0 0.00 0.00 0.00 52 1007.5
20260503224517 10 283 29.0 0.0 0.00 0.00 0.00 52 1007.5
20260503224019 10 269 29.0 0.0 0.00 0.00 0.00 51 1007.5
20260503223516 10 295 30.6 0.0 0.00 0.00 0.00 49 1007.5
20260503223016 10 298 32.2 0.0 0.00 0.00 0.00 48 1007.4
20260503222515 10 298 32.2 0.0 0.00 0.00 0.00 53 1007.5
20260503222118 10 311 32.2 0.0 0.00 0.00 0.00 50 1007.4
20260503221516 10 318 35.4 0.0 0.00 0.00 0.00 48 1007.5
20260503221018 10 325 37.0 0.0 0.00 0.00 0.00 48 1007.5
20260503220518 11 315 38.6 0.0 0.00 0.00 0.00 49 1007.5
20260503220015 11 302 41.8 0.0 0.00 0.00 0.00 49 1007.5
20260503215515 11 307 41.8 0.0 0.00 0.00 0.00 48 1007.6
20260503215016 11 311 41.8 0.0 0.00 0.00 0.00 47 1007.5
20260503214517 11 308 37.0 0.0 0.00 0.00 0.00 44 1007.3
20260503214013 11 305 33.8 0.0 0.00 0.00 0.00 47 1007.3
20260503213513 11 296 35.4 0.0 0.00 0.00 0.00 47 1007.2
20260503213013 11 298 41.8 0.0 0.00 0.00 0.00 44 1007.1
20260503212513 11 281 43.5 0.0 0.00 0.00 0.00 47 1007.1
20260503212013 11 281 45.1 0.0 0.00 0.00 0.00 47 1007.0
20260503211513 11 276 45.1 0.0 0.00 0.00 0.00 45 1007.1
20260503211012 11 360 40.2 0.0 0.00 0.00 0.00 49 1006.9
20260503210512 11 277 35.4 0.0 0.00 0.00 0.00 46 1006.9
20260503210011 11 282 33.8 0.0 0.00 0.00 0.00 46 1007.0
20260503205511 11 285 30.6 0.0 0.00 0.00 0.00 45 1007.0
20260503205011 11 291 30.6 0.0 0.00 0.00 0.00 50 1007.2
20260503204509 11 270 29.0 0.0 0.00 0.00 0.00 49 1007.2
20260503204008 11 283 25.7 0.0 0.00 0.00 0.00 50 1007.3
20260503203511 11 296 30.6 0.0 0.00 0.00 0.00 48 1007.4
20260503203022 11 300 32.2 0.0 0.00 0.00 0.00 44 1007.3
20260503202508 11 300 27.4 0.0 0.00 0.00 0.00 50 1007.3
20260503202006 11 286 25.7 0.0 0.00 0.00 0.00 48 1007.3
20260503201506 11 293 24.1 0.0 0.00 0.00 0.00 46 1007.3
20260503201009 11 288 20.9 0.0 0.00 0.00 0.00 49 1007.3
20260503200504 10 285 17.7 0.0 0.00 0.00 0.00 45 1007.4
20260503200004 10 295 16.1 0.0 0.00 0.00 0.00 43 1007.5
20260503195503 10 305 17.7 0.0 0.00 0.00 0.00 44 1007.5
20260503195002 10 304 22.5 0.0 0.00 0.00 0.00 47 1007.5
20260503194501 10 290 29.0 0.0 0.00 0.00 0.00 49 1007.7
20260503194101 11 279 27.4 0.0 0.00 0.00 0.00 51 1007.8
20260503193559 10 279 25.7 0.0 0.00 0.00 0.00 54 1007.9
20260503193058 10 285 25.7 0.0 0.00 0.00 0.00 51 1008.1
20260503192556 10 300 27.4 0.0 0.00 0.00 0.00 54 1008.1
20260503192056 10 306 30.6 0.0 0.00 0.00 0.00 50 1008.3
20260503191557 10 287 25.7 0.0 0.00 0.00 0.00 52 1008.2
20260503191055 10 259 25.7 0.0 0.00 0.00 0.00 56 1008.4
20260503190553 10 305 25.7 0.0 0.00 0.00 0.00 47 1008.6
20260503190106 10 297 24.1 0.0 0.00 0.00 0.00 52 1008.6
20260503185553 10 272 25.7 0.0 0.00 0.00 0.00 55 1008.6
20260503185053 10 292 30.6 0.0 0.00 0.00 0.00 50 1008.6
20260503184552 10 284 30.6 0.0 0.00 0.00 0.00 55 1008.7
20260503184050 10 290 29.0 0.0 0.00 0.00 0.00 55 1008.7
20260503183548 10 271 25.7 0.0 0.00 0.00 0.00 58 1008.7
20260503183047 9 281 24.1 0.0 0.00 0.00 0.00 53 1008.7
20260503182548 8 272 27.4 0.0 0.00 0.00 0.00 52 1008.8
20260503182047 9 301 30.6 0.0 0.00 0.00 0.00 53 1008.8
20260503181554 8 302 29.0 0.0 0.00 0.00 0.00 55 1009.0
20260503181045 8 300 25.7 0.0 0.00 0.00 0.00 57 1008.9
20260503180544 8 288 25.7 0.0 0.00 0.00 0.00 51 1008.9
20260503180051 8 288 25.7 0.0 0.00 0.00 0.00 59 1009.0
20260503175544 8 325 25.7 0.0 0.00 0.00 0.00 59 1009.0
20260503175043 8 290 20.9 0.0 0.00 0.00 0.00 56 1009.0
20260503174542 8 298 22.5 0.0 0.00 0.00 0.00 51 1009.0
20260503174042 8 293 29.0 0.0 0.00 0.00 0.00 51 1009.1
20260503173541 8 283 25.7 0.0 0.00 0.00 0.00 56 1009.1
20260503173040 8 294 16.1 0.0 0.00 0.00 0.00 58 1009.0
20260503172539 8 300 14.5 0.0 0.00 0.00 0.00 52 1009.1
20260503172039 8 317 16.1 0.0 0.00 0.00 0.00 55 1009.2
20260503171538 8 309 20.9 0.0 0.00 0.00 0.00 51 1009.3
20260503171038 8 288 25.7 0.0 0.00 0.00 0.00 51 1009.3
20260503170538 8 315 25.7 0.0 0.00 0.00 0.00 61 1009.3
20260503150529 7 355 20.9 0.0 0.00 0.00 0.00 57 1010.0
20260503131021 6 344 20.9 0.0 0.00 0.00 0.00 64 1010.3
20260503130520 6 302 20.9 0.0 0.00 0.00 0.00 67 1010.2
20260503110509 4 14 9.7 0.0 0.00 0.00 0.00 73 1010.0
20260503090501 3 95 3.2 0.0 0.00 0.00 0.00 78 1009.7
20260503081600 3 119 3.2 0.0 0.00 0.00 0.00 77 1009.9
20260503081055 3 119 4.8 0.0 0.00 0.00 0.00 77 1009.9
20260503080554 3 123 4.8 0.0 0.00 0.00 0.00 78 1010.0
20260503072552 3 326 1.6 0.0 0.00 0.00 0.00 75 1010.1
20260503072052 3 93 3.2 0.0 0.00 0.00 0.00 75 1010.1
20260503071551 3 68 4.8 0.0 0.00 0.00 0.00 75 1010.2
20260503071051 3 99 4.8 0.0 0.00 0.00 0.00 75 1010.2
20260503070553 3 44 4.8 0.0 0.00 0.00 0.00 76 1010.2
20260503060109 3 319 9.7 0.0 0.00 0.00 0.00 73 1010.6
20260503055044 3 336 11.3 0.0 0.00 0.00 0.00 73 1010.6
20260503054559 3 322 11.3 0.0 0.00 0.00 0.00 73 1010.6
20260503054043 4 333 11.3 0.0 0.00 0.00 0.00 75 1010.7
20260503053541 4 355 11.3 0.0 0.00 0.00 0.00 72 1010.7
20260503053043 4 335 12.9 0.0 0.00 0.00 0.00 71 1010.8
20260503052544 4 313 14.5 0.0 0.00 0.00 0.00 72 1010.8
20260503052042 4 292 14.5 0.0 0.00 0.00 0.00 71 1010.7
20260503051538 4 296 16.1 0.0 0.00 0.00 0.00 71 1010.8
20260503051037 4 321 16.1 0.0 0.00 0.00 0.00 71 1010.9
20260503050536 4 304 17.7 0.0 0.00 0.00 0.00 72 1010.9
20260503050038 5 316 17.7 0.0 0.00 0.00 0.00 71 1010.9
20260503045535 5 315 17.7 0.0 0.00 0.00 0.00 70 1010.9
20260503045032 5 299 17.7 0.0 0.00 0.00 0.00 68 1011.0
20260503044532 5 299 16.1 0.0 0.00 0.00 0.00 70 1010.9
20260503044031 5 309 16.1 0.0 0.00 0.00 0.00 69 1011.0
20260503043531 5 331 16.1 0.0 0.00 0.00 0.00 69 1011.0
20260503043030 5 315 16.1 0.0 0.00 0.00 0.00 69 1011.1
20260503042529 5 314 14.5 0.0 0.00 0.00 0.00 69 1011.2
20260503042029 5 328 16.1 0.0 0.00 0.00 0.00 67 1011.1
20260503041528 5 340 16.1 0.0 0.00 0.00 0.00 68 1011.2
20260503041031 5 334 16.1 0.0 0.00 0.00 0.00 67 1011.3
20260503040526 5 317 17.7 0.0 0.00 0.00 0.00 69 1011.3
20260503040034 5 325 17.7 0.0 0.00 0.00 0.00 68 1011.3
20260503035526 5 323 17.7 0.0 0.00 0.00 0.00 65 1011.3
20260503035025 5 329 19.3 0.0 0.00 0.00 0.00 66 1011.3
20260503034526 5 343 20.9 0.0 0.00 0.00 0.00 67 1011.3
20260503034025 6 313 22.5 0.0 0.00 0.00 0.00 66 1011.3
20260503033525 6 324 24.1 0.0 0.00 0.00 0.00 69 1011.3
20260503033029 6 313 24.1 0.0 0.00 0.00 0.00 68 1011.3
20260503032524 5 296 22.5 0.0 0.00 0.00 0.00 67 1011.3
20260503032024 6 298 22.5 0.0 0.00 0.00 0.00 67 1011.3
20260503031524 6 279 22.5 0.0 0.00 0.00 0.00 69 1011.3
20260503031024 6 278 22.5 0.0 0.00 0.00 0.00 68 1011.2
20260503030524 6 287 22.5 0.0 0.00 0.00 0.00 67 1011.2
20260503030026 6 277 22.5 0.0 0.00 0.00 0.00 67 1011.3